Terminal Aerodrome Forecast
Issued by NWS Pueblo, CO

Home | Current Version | Previous Version | Text Only | Print | Product List | Glossary On
Versions: 1 2 3 4 5 6 7 8 9 10 11 12 13 14 15 16 17 18 19 20 21 22 23 24 25 26 27 28 29 30 31 32 33 34 35
000
FTUS45 KPUB 052339
TAFPUB
TAF
KPUB 052339Z 0600/0624 30012G22KT P6SM SCT110 OVC200
     FM060300 36015G25KT P6SM SCT110 BKN150
     FM060700 36012G22KT P6SM BKN110
     FM061500 02014KT P6SM SCT110 BKN200
     FM062200 09010KT P6SM VCTS SCT100CB BKN200=

USA.gov is the U.S. government's official web portal to all federal, state and local government web resources and services.